TimeMST,TemperatureF,Dew PointF,Humidity,Sea Level PressureIn,VisibilityMPH,Wind Direction,Wind SpeedMPH,Gust SpeedMPH,PrecipitationIn,Events,Conditions,WindDirDegrees,DateUTC
12:58 AM,53.8,34.2,47,30.07,10.0,East,4.6,-,N/A,,Overcast,90,2013-02-03 07:58:00
1:58 AM,52.3,33.1,48,30.05,10.0,ESE,5.8,-,N/A,,Scattered Clouds,120,2013-02-03 08:58:00
2:58 AM,53.8,29.7,40,30.02,10.0,East,2.3,-,N/A,,Clear,80,2013-02-03 09:58:00
3:58 AM,52.5,29.7,42,30.02,10.0,SE,8.1,-,N/A,,Partly Cloudy,140,2013-02-03 10:58:00
4:58 AM,52.9,30.0,42,30.00,10.0,NNE,2.3,-,N/A,,Partly Cloudy,20,2013-02-03 11:58:00
5:58 AM,59.0,22.8,25,29.99,10.0,ESE,12.7,-,N/A,,Mostly Cloudy,120,2013-02-03 12:58:00
6:58 AM,53.4,30.6,42,30.00,10.0,SE,10.4,-,N/A,,Clear,140,2013-02-03 13:58:00
7:58 AM,54.0,30.9,41,30.02,10.0,SE,4.6,-,N/A,,Clear,140,2013-02-03 14:58:00
8:58 AM,58.3,24.6,27,30.01,10.0,SE,5.8,-,N/A,,Clear,140,2013-02-03 15:58:00
9:58 AM,60.8,25.0,25,30.02,10.0,ESE,11.5,-,N/A,,Partly Cloudy,110,2013-02-03 16:58:00
10:58 AM,60.1,32.4,35,30.02,10.0,WNW,4.6,-,N/A,,Clear,300,2013-02-03 17:58:00
11:58 AM,62.8,30.2,29,30.02,10.0,West,4.6,-,N/A,,Clear,280,2013-02-03 18:58:00
12:58 PM,64.6,28.9,26,29.98,10.0,South,5.8,-,N/A,,Clear,190,2013-02-03 19:58:00
1:58 PM,63.5,30.2,29,29.95,10.0,South,5.8,-,N/A,,Clear,180,2013-02-03 20:58:00
2:58 PM,65.7,30.2,27,29.91,10.0,ENE,5.8,-,N/A,,Clear,70,2013-02-03 21:58:00
3:58 PM,67.1,30.6,26,29.91,10.0,North,3.5,-,N/A,,Clear,10,2013-02-03 22:58:00
4:58 PM,68.0,31.3,26,29.91,10.0,WNW,2.3,-,N/A,,Scattered Clouds,300,2013-02-03 23:58:00
5:58 PM,65.5,34.9,32,29.91,10.0,WNW,4.6,-,N/A,,Overcast,300,2013-02-04 00:58:00
6:58 PM,60.3,37.9,44,29.94,10.0,NW,9.2,-,N/A,,Scattered Clouds,310,2013-02-04 01:58:00
7:58 PM,59.7,36.3,42,29.95,10.0,NW,10.4,-,N/A,,Mostly Cloudy,310,2013-02-04 02:58:00
8:58 PM,58.6,36.5,44,29.97,10.0,WNW,11.5,-,N/A,,Overcast,300,2013-02-04 03:58:00
9:58 PM,57.7,36.7,45,29.98,10.0,South,4.6,-,N/A,,Overcast,190,2013-02-04 04:58:00
10:58 PM,54.7,37.6,53,29.97,10.0,South,5.8,-,N/A,,Clear,190,2013-02-04 05:58:00
11:58 PM,53.4,37.9,56,29.97,10.0,SSW,5.8,-,N/A,,Clear,200,2013-02-04 06:58:00